User: anonymous   Login
Location: St. Louis
(38.6270°N, 90.1994°W)
Time: 18:04:02
(UTC-05:00)
Language:

Transit 2A Rocket - Orbit

View from above orbital plane
View from above orbital plane
View from above satellite
View from above satellite

Ground track
Ground track

The orbit data is extracted from the following two-line orbital elements,

1 00047U 60007C   22147.45738259  .00000313  00000-0  95186-4 0  9993
2 00047  66.6670  58.9697 0222639 146.1685 215.3857 14.42332509236918
Epoch (UTC): 27 May 2022 10:58:37
Eccentricity: 0.0222639
inclination: 66.6670°
perigee height: 592 km
apogee height: 909 km
right ascension of ascending node: 58.9697°
argument of perigee: 146.1685°
revolutions per day: 14.42332509
mean anomaly at epoch: 215.3857°
orbit number at epoch: 23691

The dashed part of the orbit path shows where the satellite is in the earth's shadow,  

DLR